Overview Statistics Trail Chart Weather Telemetry Raw packets
 

This is the latest recevied weather packets stored in our database for station/object K1BES. If no packets are shown the sender has not sent any weather packets the latest 10 day(s).

<< 1 2 3 4 5 6 >>
Time Temp. Humidity Pressure Rain* Wind** Luminosity Snow
1788642847 31.67° C 73% 1014.9 hPa 0 mm - 59 W/m² -
1788642543 31.67° C 74% 1014.6 hPa 0 mm - 64 W/m² -
1788642243 31.67° C 74% 1014.7 hPa 0 mm - 71 W/m² -
1788641942 31.67° C 73% 1014.9 hPa 0 mm - 98 W/m² -
1788641637 31.67° C 72% 1014.9 hPa 0 mm - 82 W/m² -
1788641336 31.67° C 74% 1014.9 hPa 0 mm - 119 W/m² -
1788641033 31.67° C 73% 1014.8 hPa 0 mm - 83 W/m² -
1788640731 31.67° C 72% 1014.7 hPa 0 mm - 99 W/m² -
1788640427 32.22° C 72% 1014.8 hPa 0 mm - 65 W/m² -
1788640123 32.22° C 70% 1014.6 hPa 0 mm - 75 W/m² -
1788639823 32.22° C 71% 1014.8 hPa 0 mm - 67 W/m² -
1788639519 32.22° C 71% 1014.8 hPa 0 mm - 66 W/m² -
1788639214 32.22° C 70% 1014.8 hPa 0 mm - 75 W/m² -
1788638941 32.78° C 69% 1014.8 hPa 0 mm - 88 W/m² -
1788638610 32.78° C 68% 1014.8 hPa 0 mm - 359 W/m² -
1788638308 32.78° C 66% 1014.7 hPa 0 mm - 752 W/m² -
1788638003 33.89° C 66% 1015 hPa 0 mm - 769 W/m² -
1788637699 33.33° C 67% 1015 hPa 0 mm - 784 W/m² -
1788637399 33.33° C 66% 1014.9 hPa 0 mm - 798 W/m² -
1788637098 33.33° C 67% 1015.2 hPa 0 mm - 812 W/m² -
1788636793 33.33° C 68% 1015.3 hPa 0 mm - 827 W/m² -
1788636488 33.33° C 67% 1015.2 hPa 0 mm - 840 W/m² -
1788636185 33.89° C 66% 1015.5 hPa 0 mm - 850 W/m² -
1788635884 33.33° C 67% 1015.6 hPa 0 mm - 858 W/m² -
1788635582 33.89° C 67% 1015.4 hPa 0 mm - 876 W/m² -

* Rain latest hour (hover to see other rain measurements)
** Current wind speed in m/s (hover to see current wind gust speed)